Kosmos-2303

operational
NORAD ID: 23445 Int'l Des: 1994-086 Owner: VKS Country: RU
LEOCIRCULARPOLAR

About Kosmos-2303

Description loading...

Live Position

Loading 3D Globe...

Upcoming Passes

Altitude History

Altitude vs Time

uPlot chart will show altitude changes over time

Two-Line Element Set

1 23445U 94086E 26102.86357953 .00000008 00000-0 -14732-4 0 9992
2 23445 82.5791 27.5817 0011620 1.2167 60.5957 12.60559559439756
Epoch: Apr 12, 2026 • Age: 11 hours

Current Status

Altitude 1414.7 km
Velocity 7.16 km/s
Sub-Earth Point -2.61°S, 68.21°E
Launch Date Dec 26, 1994
Age 31.2 years
Type other

Technical Details

Classification Payload
Mass 225.00 kg
Dry Mass 225.00 kg
Total Mass 225.00 kg
Length 1.60 m
Diameter 0.80 m
Span 7.00 m
Shape Cyl + Ant
Manufacturer NPOPMR
Bus Type Strela-3
Phase Status In Orbit
Owner/State VKS/RU

Large Constellations

Loading constellations...